Year,Month,Day,Hour,Minute,Value (Times are PST for temperature in C)
2016,06,29,00,00,17.80
2016,06,29,00,01,17.80
2016,06,29,00,02,17.80
2016,06,29,00,03,17.80
2016,06,29,00,04,17.80
2016,06,29,00,05,17.90
2016,06,29,00,06,17.80
2016,06,29,00,07,17.80
2016,06,29,00,08,17.80
2016,06,29,00,09,17.80
2016,06,29,00,10,17.80
2016,06,29,00,11,17.70
2016,06,29,00,12,17.70
2016,06,29,00,13,17.70
2016,06,29,00,14,17.70
2016,06,29,00,15,17.70
2016,06,29,00,16,17.70
2016,06,29,00,17,17.70
2016,06,29,00,18,17.70
2016,06,29,00,19,17.80
2016,06,29,00,20,17.80
2016,06,29,00,21,17.80
2016,06,29,00,22,17.90
2016,06,29,00,23,17.90
2016,06,29,00,24,18.00
2016,06,29,00,25,18.10
2016,06,29,00,26,18.20
2016,06,29,00,27,18.20
2016,06,29,00,28,18.30
2016,06,29,00,29,18.40
2016,06,29,00,30,18.50
2016,06,29,00,31,18.70
2016,06,29,00,32,18.80
2016,06,29,00,33,18.90
2016,06,29,00,34,19.00
2016,06,29,00,35,19.20
2016,06,29,00,36,19.30
2016,06,29,00,37,19.30
2016,06,29,00,38,19.40
2016,06,29,00,39,19.40
2016,06,29,00,40,19.40
2016,06,29,00,41,19.40
2016,06,29,00,42,19.40
2016,06,29,00,43,19.40
2016,06,29,00,44,19.30
2016,06,29,00,45,19.20
2016,06,29,00,46,19.10
2016,06,29,00,47,19.00
2016,06,29,00,48,18.90
2016,06,29,00,49,18.80
2016,06,29,00,50,18.70
2016,06,29,00,51,18.70
2016,06,29,00,52,18.60
2016,06,29,00,53,18.60
2016,06,29,00,54,18.50
2016,06,29,00,55,18.50
2016,06,29,00,56,18.50
2016,06,29,00,57,18.50
2016,06,29,00,58,18.40
2016,06,29,00,59,18.40
2016,06,29,01,00,18.40
2016,06,29,01,01,18.40
2016,06,29,01,02,18.30
2016,06,29,01,03,18.30
2016,06,29,01,04,18.30
2016,06,29,01,05,18.30
2016,06,29,01,06,18.30
2016,06,29,01,07,18.30
2016,06,29,01,08,18.20
2016,06,29,01,09,18.20
2016,06,29,01,10,18.20
2016,06,29,01,11,18.10
2016,06,29,01,12,18.10
2016,06,29,01,13,18.00
2016,06,29,01,14,18.00
2016,06,29,01,15,18.00
2016,06,29,01,16,18.00
2016,06,29,01,17,18.00
2016,06,29,01,18,18.00
2016,06,29,01,19,18.00
2016,06,29,01,20,17.90
2016,06,29,01,21,17.90
2016,06,29,01,22,17.90
2016,06,29,01,23,17.90
2016,06,29,01,24,17.90
2016,06,29,01,25,17.90
2016,06,29,01,26,17.90
2016,06,29,01,27,17.80
2016,06,29,01,28,17.80
2016,06,29,01,29,17.80
2016,06,29,01,30,17.80
2016,06,29,01,31,17.80
2016,06,29,01,32,17.80
2016,06,29,01,33,17.70
2016,06,29,01,34,17.70
2016,06,29,01,35,17.70
2016,06,29,01,36,17.70
2016,06,29,01,37,17.70
2016,06,29,01,38,17.70
2016,06,29,01,39,17.70
2016,06,29,01,40,17.70
2016,06,29,01,41,17.60
2016,06,29,01,42,17.60
2016,06,29,01,43,17.60
2016,06,29,01,44,17.60
2016,06,29,01,45,17.60
2016,06,29,01,46,17.60
2016,06,29,01,47,17.60
2016,06,29,01,48,17.60
2016,06,29,01,49,17.60
2016,06,29,01,50,17.60
2016,06,29,01,51,17.50
2016,06,29,01,52,17.50
2016,06,29,01,53,17.50
2016,06,29,01,54,17.40
2016,06,29,01,55,17.40
2016,06,29,01,56,17.40
2016,06,29,01,57,17.40
2016,06,29,01,58,17.30
2016,06,29,01,59,17.30
2016,06,29,02,00,17.20
2016,06,29,02,01,17.20
2016,06,29,02,02,17.10
2016,06,29,02,03,17.10
2016,06,29,02,04,17.10
2016,06,29,02,05,17.10
2016,06,29,02,06,17.10
2016,06,29,02,07,17.10
2016,06,29,02,08,17.10
2016,06,29,02,09,17.10
2016,06,29,02,10,17.10
2016,06,29,02,11,17.10
2016,06,29,02,12,17.10
2016,06,29,02,13,17.10
2016,06,29,02,14,17.10
2016,06,29,02,15,17.10
2016,06,29,02,16,17.10
2016,06,29,02,17,17.00
2016,06,29,02,18,17.00
2016,06,29,02,19,17.00
2016,06,29,02,20,17.00
2016,06,29,02,21,17.00
2016,06,29,02,22,17.10
2016,06,29,02,23,17.10
2016,06,29,02,24,17.10
2016,06,29,02,25,17.10
2016,06,29,02,26,17.10
2016,06,29,02,27,17.10
2016,06,29,02,28,17.10
2016,06,29,02,29,17.10
2016,06,29,02,30,17.10
2016,06,29,02,31,17.10
2016,06,29,02,32,17.10
2016,06,29,02,33,17.10
2016,06,29,02,34,17.20
2016,06,29,02,35,17.20
2016,06,29,02,36,17.20
2016,06,29,02,37,17.20
2016,06,29,02,38,17.20
2016,06,29,02,39,17.20
2016,06,29,02,40,17.10
2016,06,29,02,41,17.10
2016,06,29,02,42,17.00
2016,06,29,02,43,16.90
2016,06,29,02,44,16.80
2016,06,29,02,45,16.70
2016,06,29,02,46,16.60
2016,06,29,02,47,16.60
2016,06,29,02,48,16.50
2016,06,29,02,49,16.40
2016,06,29,02,50,16.40
2016,06,29,02,51,16.30
2016,06,29,02,52,16.30
2016,06,29,02,53,16.20
2016,06,29,02,54,16.10
2016,06,29,02,55,16.10
2016,06,29,02,56,16.00
2016,06,29,02,57,16.00
2016,06,29,02,58,15.90
2016,06,29,02,59,15.90
2016,06,29,03,00,15.90
2016,06,29,03,01,15.90
2016,06,29,03,02,15.80
2016,06,29,03,03,15.80
2016,06,29,03,04,15.80
2016,06,29,03,05,15.90
2016,06,29,03,06,15.90
2016,06,29,03,07,15.90
2016,06,29,03,08,15.90
2016,06,29,03,09,16.00
2016,06,29,03,10,16.00
2016,06,29,03,11,16.10
2016,06,29,03,12,16.10
2016,06,29,03,13,16.10
2016,06,29,03,14,16.20
2016,06,29,03,15,16.20
2016,06,29,03,16,16.20
2016,06,29,03,17,16.20
2016,06,29,03,18,16.20
2016,06,29,03,19,16.20
2016,06,29,03,20,16.20
2016,06,29,03,21,16.20
2016,06,29,03,22,16.20
2016,06,29,03,23,16.20
2016,06,29,03,24,16.20
2016,06,29,03,25,16.20
2016,06,29,03,26,16.20
2016,06,29,03,27,16.20
2016,06,29,03,28,16.10
2016,06,29,03,29,16.10
2016,06,29,03,30,16.10
2016,06,29,03,31,16.10
2016,06,29,03,32,16.10
2016,06,29,03,33,16.10
2016,06,29,03,34,16.10
2016,06,29,03,35,16.00
2016,06,29,03,36,16.00
2016,06,29,03,37,15.90
2016,06,29,03,38,15.90
2016,06,29,03,39,15.90
2016,06,29,03,40,15.90
2016,06,29,03,41,15.90
2016,06,29,03,42,15.90
2016,06,29,03,43,15.80
2016,06,29,03,44,15.80
2016,06,29,03,45,15.80
2016,06,29,03,46,15.80
2016,06,29,03,47,15.80
2016,06,29,03,48,15.80
2016,06,29,03,49,15.80
2016,06,29,03,50,15.80
2016,06,29,03,51,15.80
2016,06,29,03,52,15.80
2016,06,29,03,53,15.80
2016,06,29,03,54,15.70
2016,06,29,03,55,15.70
2016,06,29,03,56,15.70
2016,06,29,03,57,15.70
2016,06,29,03,58,15.70
2016,06,29,03,59,15.60
2016,06,29,04,00,15.60
2016,06,29,04,01,15.60
2016,06,29,04,02,15.60
2016,06,29,04,03,15.60
2016,06,29,04,04,15.60
2016,06,29,04,05,15.60
2016,06,29,04,06,15.60
2016,06,29,04,07,15.60
2016,06,29,04,08,15.60
2016,06,29,04,09,15.50
2016,06,29,04,10,15.50
2016,06,29,04,11,15.50
2016,06,29,04,12,15.50
2016,06,29,04,13,15.40
2016,06,29,04,14,15.40
2016,06,29,04,15,15.40
2016,06,29,04,16,15.30
2016,06,29,04,17,15.30
2016,06,29,04,18,15.20
2016,06,29,04,19,15.20
2016,06,29,04,20,15.10
2016,06,29,04,21,15.00
2016,06,29,04,22,15.00
2016,06,29,04,23,15.00
2016,06,29,04,24,15.00
2016,06,29,04,25,15.00
2016,06,29,04,26,14.90
2016,06,29,04,27,14.80
2016,06,29,04,28,14.70
2016,06,29,04,29,14.70
2016,06,29,04,30,14.60
2016,06,29,04,31,14.60
2016,06,29,04,32,14.50
2016,06,29,04,33,14.40
2016,06,29,04,34,14.40
2016,06,29,04,35,14.40
2016,06,29,04,36,14.30
2016,06,29,04,37,14.30
2016,06,29,04,38,14.30
2016,06,29,04,39,14.20
2016,06,29,04,40,14.20
2016,06,29,04,41,14.20
2016,06,29,04,42,14.20
2016,06,29,04,43,14.10
2016,06,29,04,44,14.10
2016,06,29,04,45,14.10
2016,06,29,04,46,14.10
2016,06,29,04,47,14.10
2016,06,29,04,48,14.10
2016,06,29,04,49,14.00
2016,06,29,04,50,14.00
2016,06,29,04,51,14.00
2016,06,29,04,52,14.00
2016,06,29,04,53,14.00
2016,06,29,04,54,14.00
2016,06,29,04,55,13.90
2016,06,29,04,56,13.90
2016,06,29,04,57,13.90
2016,06,29,04,58,13.90
2016,06,29,04,59,13.90
2016,06,29,05,00,13.90
2016,06,29,05,01,13.90
2016,06,29,05,02,13.90
2016,06,29,05,03,13.80
2016,06,29,05,04,13.80
2016,06,29,05,05,13.80
2016,06,29,05,06,13.80
2016,06,29,05,07,13.70
2016,06,29,05,08,13.70
2016,06,29,05,09,13.70
2016,06,29,05,10,13.60
2016,06,29,05,11,13.60
2016,06,29,05,12,13.50
2016,06,29,05,13,13.50
2016,06,29,05,14,13.40
2016,06,29,05,15,13.40
2016,06,29,05,16,13.40
2016,06,29,05,17,13.40
2016,06,29,05,18,13.40
2016,06,29,05,19,13.40
2016,06,29,05,20,13.40
2016,06,29,05,21,13.40
2016,06,29,05,22,13.40
2016,06,29,05,23,13.40
2016,06,29,05,24,13.40
2016,06,29,05,25,13.40
2016,06,29,05,26,13.40
2016,06,29,05,27,13.40
2016,06,29,05,28,13.40
2016,06,29,05,29,13.40
2016,06,29,05,30,13.40
2016,06,29,05,31,13.40
2016,06,29,05,32,13.40
2016,06,29,05,33,13.40
2016,06,29,05,34,13.40
2016,06,29,05,35,13.40
2016,06,29,05,36,13.40
2016,06,29,05,37,13.40
2016,06,29,05,38,13.40
2016,06,29,05,39,13.30
2016,06,29,05,40,13.30
2016,06,29,05,41,13.30
2016,06,29,05,42,13.30
2016,06,29,05,43,13.30
2016,06,29,05,44,13.30
2016,06,29,05,45,13.30
2016,06,29,05,46,13.30
2016,06,29,05,47,13.30
2016,06,29,05,48,13.30
2016,06,29,05,49,13.30
2016,06,29,05,50,13.30
2016,06,29,05,51,13.30
2016,06,29,05,52,13.30
2016,06,29,05,53,13.30
2016,06,29,05,54,13.30
2016,06,29,05,55,13.30
2016,06,29,05,56,13.30
2016,06,29,05,57,13.30
2016,06,29,05,58,13.30
2016,06,29,05,59,13.30
2016,06,29,06,00,13.30
2016,06,29,06,01,13.30
2016,06,29,06,02,13.40
2016,06,29,06,03,13.40
2016,06,29,06,04,13.40
2016,06,29,06,05,13.40
2016,06,29,06,06,13.50
2016,06,29,06,07,13.50
2016,06,29,06,08,13.60
2016,06,29,06,09,13.60
2016,06,29,06,10,13.60
2016,06,29,06,11,13.60
2016,06,29,06,12,13.60
2016,06,29,06,13,13.70
2016,06,29,06,14,13.70
2016,06,29,06,15,13.70
2016,06,29,06,16,13.80
2016,06,29,06,17,13.80
2016,06,29,06,18,13.80
2016,06,29,06,19,13.90
2016,06,29,06,20,13.90
2016,06,29,06,21,13.90
2016,06,29,06,22,14.00
2016,06,29,06,23,14.00
2016,06,29,06,24,14.10
2016,06,29,06,25,14.10
2016,06,29,06,26,14.10
2016,06,29,06,27,14.10
2016,06,29,06,28,14.20
2016,06,29,06,29,14.20
2016,06,29,06,30,14.20
2016,06,29,06,31,14.30
2016,06,29,06,32,14.30
2016,06,29,06,33,14.30
2016,06,29,06,34,14.30
2016,06,29,06,35,14.30
2016,06,29,06,36,14.30
2016,06,29,06,37,14.40
2016,06,29,06,38,14.40
2016,06,29,06,39,14.40
2016,06,29,06,40,14.40
2016,06,29,06,41,14.50
2016,06,29,06,42,14.50
2016,06,29,06,43,14.50
2016,06,29,06,44,14.60
2016,06,29,06,45,14.70
2016,06,29,06,46,14.70
2016,06,29,06,47,14.80
2016,06,29,06,48,14.90
2016,06,29,06,49,15.00
2016,06,29,06,50,15.00
2016,06,29,06,51,15.00
2016,06,29,06,52,15.10
2016,06,29,06,53,15.20
2016,06,29,06,54,15.30
2016,06,29,06,55,15.40
2016,06,29,06,56,15.40
2016,06,29,06,57,15.50
2016,06,29,06,58,15.60
2016,06,29,06,59,15.70
2016,06,29,07,00,15.80
2016,06,29,07,01,15.90
2016,06,29,07,02,15.90
2016,06,29,07,03,16.00
2016,06,29,07,04,16.10
2016,06,29,07,05,16.20
2016,06,29,07,06,16.30
2016,06,29,07,07,16.40
2016,06,29,07,08,16.50
2016,06,29,07,09,16.60
2016,06,29,07,10,16.60
2016,06,29,07,11,16.70
2016,06,29,07,12,16.80
2016,06,29,07,13,16.80
2016,06,29,07,14,16.90
2016,06,29,07,15,17.00
2016,06,29,07,16,17.00
2016,06,29,07,17,17.10
2016,06,29,07,18,17.10
2016,06,29,07,19,17.20
2016,06,29,07,20,17.20
2016,06,29,07,21,17.30
2016,06,29,07,22,17.30
2016,06,29,07,23,17.30
2016,06,29,07,24,17.40
2016,06,29,07,25,17.40
2016,06,29,07,26,17.40
2016,06,29,07,27,17.50
2016,06,29,07,28,17.50
2016,06,29,07,29,17.60
2016,06,29,07,30,17.60
2016,06,29,07,31,17.60
2016,06,29,07,32,17.70
2016,06,29,07,33,17.70
2016,06,29,07,34,17.70
2016,06,29,07,35,17.80
2016,06,29,07,36,17.80
2016,06,29,07,37,17.90
2016,06,29,07,38,18.00
2016,06,29,07,39,18.00
2016,06,29,07,40,18.10
2016,06,29,07,41,18.10
2016,06,29,07,42,18.20
2016,06,29,07,43,18.20
2016,06,29,07,44,18.20
2016,06,29,07,45,18.30
2016,06,29,07,46,18.30
2016,06,29,07,47,18.20
2016,06,29,07,48,18.20
2016,06,29,07,49,18.20
2016,06,29,07,50,18.20
2016,06,29,07,51,18.20
2016,06,29,07,52,18.30
2016,06,29,07,53,18.30
2016,06,29,07,54,18.30
2016,06,29,07,55,18.30
2016,06,29,07,56,18.30
2016,06,29,07,57,18.30
2016,06,29,07,58,18.30
2016,06,29,07,59,18.30
2016,06,29,08,00,18.30
2016,06,29,08,01,18.30
2016,06,29,08,02,18.30
2016,06,29,08,03,18.30
2016,06,29,08,04,18.30
2016,06,29,08,05,18.30
2016,06,29,08,06,18.30
2016,06,29,08,07,18.20
2016,06,29,08,08,18.20
2016,06,29,08,09,18.30
2016,06,29,08,10,18.30
2016,06,29,08,11,18.30
2016,06,29,08,12,18.30
2016,06,29,08,13,18.30
2016,06,29,08,14,18.30
2016,06,29,08,15,18.30
2016,06,29,08,16,18.30
2016,06,29,08,17,18.30
2016,06,29,08,18,18.30
2016,06,29,08,19,18.40
2016,06,29,08,20,18.40
2016,06,29,08,21,18.40
2016,06,29,08,22,18.40
2016,06,29,08,23,18.50
2016,06,29,08,24,18.60
2016,06,29,08,25,18.50
2016,06,29,08,26,18.50
2016,06,29,08,27,18.50
2016,06,29,08,28,18.50
2016,06,29,08,29,18.50
2016,06,29,08,30,18.40
2016,06,29,08,31,18.40
2016,06,29,08,32,18.50
2016,06,29,08,33,18.50
2016,06,29,08,34,18.50
2016,06,29,08,35,18.50
2016,06,29,08,36,18.60
2016,06,29,08,37,18.70
2016,06,29,08,38,18.70
2016,06,29,08,39,18.70
2016,06,29,08,40,18.70
2016,06,29,08,41,18.70
2016,06,29,08,42,18.80
2016,06,29,08,43,18.80
2016,06,29,08,44,18.90
2016,06,29,08,45,19.00
2016,06,29,08,46,19.00
2016,06,29,08,47,18.90
2016,06,29,08,48,18.80
2016,06,29,08,49,18.90
2016,06,29,08,50,18.90
2016,06,29,08,51,18.90
2016,06,29,08,52,18.80
2016,06,29,08,53,18.90
2016,06,29,08,54,18.90
2016,06,29,08,55,18.90
2016,06,29,08,56,19.00
2016,06,29,08,57,19.10
2016,06,29,08,58,19.10
2016,06,29,08,59,19.10
2016,06,29,09,00,19.10
2016,06,29,09,01,19.10
2016,06,29,09,02,19.10
2016,06,29,09,03,19.20
2016,06,29,09,04,19.10
2016,06,29,09,05,18.90
2016,06,29,09,06,18.80
2016,06,29,09,07,18.80
2016,06,29,09,08,18.90
2016,06,29,09,09,18.90
2016,06,29,09,10,18.90
2016,06,29,09,11,19.00
2016,06,29,09,12,19.20
2016,06,29,09,13,19.20
2016,06,29,09,14,19.20
2016,06,29,09,15,19.20
2016,06,29,09,16,19.20
2016,06,29,09,17,19.20
2016,06,29,09,18,19.20
2016,06,29,09,19,19.20
2016,06,29,09,20,19.30
2016,06,29,09,21,19.20
2016,06,29,09,22,19.00
2016,06,29,09,23,18.90
2016,06,29,09,24,19.00
2016,06,29,09,25,19.00
2016,06,29,09,26,19.10
2016,06,29,09,27,19.20
2016,06,29,09,28,19.20
2016,06,29,09,29,19.30
2016,06,29,09,30,19.30
2016,06,29,09,31,19.20
2016,06,29,09,32,19.20
2016,06,29,09,33,19.30
2016,06,29,09,34,19.30
2016,06,29,09,35,19.30
2016,06,29,09,36,19.40
2016,06,29,09,37,19.30
2016,06,29,09,38,19.30
2016,06,29,09,39,19.30
2016,06,29,09,40,19.30
2016,06,29,09,41,19.40
2016,06,29,09,42,19.40
2016,06,29,09,43,19.40
2016,06,29,09,44,19.40
2016,06,29,09,45,19.40
2016,06,29,09,46,19.40
2016,06,29,09,47,19.50
2016,06,29,09,48,19.60
2016,06,29,09,49,19.60
2016,06,29,09,50,19.60
2016,06,29,09,51,19.60
2016,06,29,09,52,19.60
2016,06,29,09,53,19.60
2016,06,29,09,54,19.60
2016,06,29,09,55,19.60
2016,06,29,09,56,19.60
2016,06,29,09,57,19.50
2016,06,29,09,58,19.40
2016,06,29,09,59,19.50
2016,06,29,10,00,19.50
2016,06,29,10,01,19.50
2016,06,29,10,02,19.50
2016,06,29,10,03,19.60
2016,06,29,10,04,19.60
2016,06,29,10,05,19.60
2016,06,29,10,06,19.50
2016,06,29,10,07,19.40
2016,06,29,10,08,19.30
2016,06,29,10,09,19.20
2016,06,29,10,10,19.20
2016,06,29,10,11,19.30
2016,06,29,10,12,19.40
2016,06,29,10,13,19.50
2016,06,29,10,14,19.50
2016,06,29,10,15,19.50
2016,06,29,10,16,19.60
2016,06,29,10,17,19.50
2016,06,29,10,18,19.40
2016,06,29,10,19,19.40
2016,06,29,10,20,19.40
2016,06,29,10,21,19.50
2016,06,29,10,22,19.50
2016,06,29,10,23,19.40
2016,06,29,10,24,19.40
2016,06,29,10,25,19.40
2016,06,29,10,26,19.40
2016,06,29,10,27,19.40
2016,06,29,10,28,19.50
2016,06,29,10,29,19.50
2016,06,29,10,30,19.40
2016,06,29,10,31,19.40
2016,06,29,10,32,19.40
2016,06,29,10,33,19.50
2016,06,29,10,34,19.60
2016,06,29,10,35,19.70
2016,06,29,10,36,19.80
2016,06,29,10,37,19.70
2016,06,29,10,38,19.70
2016,06,29,10,39,19.70
2016,06,29,10,40,19.70
2016,06,29,10,41,19.70
2016,06,29,10,42,19.70
2016,06,29,10,43,19.80
2016,06,29,10,44,19.80
2016,06,29,10,45,19.90
2016,06,29,10,46,19.90
2016,06,29,10,47,19.80
2016,06,29,10,48,19.70
2016,06,29,10,49,19.60
2016,06,29,10,50,19.60
2016,06,29,10,51,19.50
2016,06,29,10,52,19.50
2016,06,29,10,53,19.50
2016,06,29,10,54,19.60
2016,06,29,10,55,19.70
2016,06,29,10,56,19.80
2016,06,29,10,57,19.80
2016,06,29,10,58,19.80
2016,06,29,10,59,19.80
2016,06,29,11,00,19.70
2016,06,29,11,01,19.70
2016,06,29,11,02,19.70
2016,06,29,11,03,19.70
2016,06,29,11,04,19.70
2016,06,29,11,05,19.60
2016,06,29,11,06,19.60
2016,06,29,11,07,19.70
2016,06,29,11,08,19.70
2016,06,29,11,09,19.70
2016,06,29,11,10,19.70
2016,06,29,11,11,19.70
2016,06,29,11,12,19.80
2016,06,29,11,13,20.00
2016,06,29,11,14,20.00
2016,06,29,11,15,20.00
2016,06,29,11,16,20.00
2016,06,29,11,17,20.10
2016,06,29,11,18,20.20
2016,06,29,11,19,20.20
2016,06,29,11,20,20.20
2016,06,29,11,21,20.10
2016,06,29,11,22,20.10
2016,06,29,11,23,20.20
2016,06,29,11,24,20.20
2016,06,29,11,25,20.40
2016,06,29,11,26,20.50
2016,06,29,11,27,20.60
2016,06,29,11,28,20.70
2016,06,29,11,29,20.80
2016,06,29,11,30,20.80
2016,06,29,11,31,20.80
2016,06,29,11,32,20.80
2016,06,29,11,33,20.80
2016,06,29,11,34,20.90
2016,06,29,11,35,20.90
2016,06,29,11,36,21.00
2016,06,29,11,37,21.10
2016,06,29,11,38,21.00
2016,06,29,11,39,21.00
2016,06,29,11,40,20.90
2016,06,29,11,41,20.90
2016,06,29,11,42,20.80
2016,06,29,11,43,20.80
2016,06,29,11,44,20.70
2016,06,29,11,45,20.80
2016,06,29,11,46,20.80
2016,06,29,11,47,20.80
2016,06,29,11,48,20.90
2016,06,29,11,49,21.10
2016,06,29,11,50,21.10
2016,06,29,11,51,21.20
2016,06,29,11,52,21.30
2016,06,29,11,53,21.40
2016,06,29,11,54,21.40
2016,06,29,11,55,21.40
2016,06,29,11,56,21.40
2016,06,29,11,57,21.30
2016,06,29,11,58,21.30
2016,06,29,11,59,21.30
2016,06,29,12,00,21.20
2016,06,29,12,01,21.20
2016,06,29,12,02,21.30
2016,06,29,12,03,21.30
2016,06,29,12,04,21.30
2016,06,29,12,05,21.40
2016,06,29,12,06,21.40
2016,06,29,12,07,21.40
2016,06,29,12,08,21.30
2016,06,29,12,09,21.30
2016,06,29,12,10,21.30
2016,06,29,12,11,21.30
2016,06,29,12,12,21.20
2016,06,29,12,13,21.20
2016,06,29,12,14,21.20
2016,06,29,12,15,21.20
2016,06,29,12,16,21.30
2016,06,29,12,17,21.40
2016,06,29,12,18,21.40
2016,06,29,12,19,21.30
2016,06,29,12,20,21.20
2016,06,29,12,21,21.00
2016,06,29,12,22,20.90
2016,06,29,12,23,20.90
2016,06,29,12,24,21.00
2016,06,29,12,25,21.10
2016,06,29,12,26,21.20
2016,06,29,12,27,21.10
2016,06,29,12,28,21.00
2016,06,29,12,29,20.90
2016,06,29,12,30,20.90
2016,06,29,12,31,20.90
2016,06,29,12,32,20.90
2016,06,29,12,33,21.00
2016,06,29,12,34,21.00
2016,06,29,12,35,21.00
2016,06,29,12,36,21.10
2016,06,29,12,37,21.00
2016,06,29,12,38,20.90
2016,06,29,12,39,20.90
2016,06,29,12,40,20.90
2016,06,29,12,41,20.90
2016,06,29,12,42,21.00
2016,06,29,12,43,21.00
2016,06,29,12,44,21.10
2016,06,29,12,45,21.10
2016,06,29,12,46,21.10
2016,06,29,12,47,21.20
2016,06,29,12,48,21.20
2016,06,29,12,49,21.20
2016,06,29,12,50,21.20
2016,06,29,12,51,21.20
2016,06,29,12,52,21.20
2016,06,29,12,53,21.20
2016,06,29,12,54,21.20
2016,06,29,12,55,21.20
2016,06,29,12,56,21.20
2016,06,29,12,57,21.00
2016,06,29,12,58,21.00
2016,06,29,12,59,21.10
2016,06,29,13,00,21.20
2016,06,29,13,01,21.20
2016,06,29,13,02,21.30
2016,06,29,13,03,21.30
2016,06,29,13,04,21.40
2016,06,29,13,05,21.40
2016,06,29,13,06,21.40
2016,06,29,13,07,21.40
2016,06,29,13,08,21.40
2016,06,29,13,09,21.40
2016,06,29,13,10,21.30
2016,06,29,13,11,21.50
2016,06,29,13,12,21.60
2016,06,29,13,13,21.60
2016,06,29,13,14,21.60
2016,06,29,13,15,21.60
2016,06,29,13,16,21.50
2016,06,29,13,17,21.50
2016,06,29,13,18,21.40
2016,06,29,13,19,21.30
2016,06,29,13,20,21.30
2016,06,29,13,21,21.40
2016,06,29,13,22,21.40
2016,06,29,13,23,21.30
2016,06,29,13,24,21.20
2016,06,29,13,25,21.30
2016,06,29,13,26,21.30
2016,06,29,13,27,21.20
2016,06,29,13,28,21.10
2016,06,29,13,29,21.10
2016,06,29,13,30,21.00
2016,06,29,13,31,21.00
2016,06,29,13,32,21.00
2016,06,29,13,33,21.00
2016,06,29,13,34,21.00
2016,06,29,13,35,21.10
2016,06,29,13,36,21.10
2016,06,29,13,37,21.10
2016,06,29,13,38,21.10
2016,06,29,13,39,21.20
2016,06,29,13,40,21.20
2016,06,29,13,41,21.20
2016,06,29,13,42,21.30
2016,06,29,13,43,21.30
2016,06,29,13,44,21.40
2016,06,29,13,45,21.50
2016,06,29,13,46,21.60
2016,06,29,13,47,21.70
2016,06,29,13,48,21.70
2016,06,29,13,49,21.70
2016,06,29,13,50,21.60
2016,06,29,13,51,21.50
2016,06,29,13,52,21.50
2016,06,29,13,53,21.50
2016,06,29,13,54,21.50
2016,06,29,13,55,21.50
2016,06,29,13,56,21.60
2016,06,29,13,57,21.60
2016,06,29,13,58,21.60
2016,06,29,13,59,21.60
2016,06,29,14,00,21.70
2016,06,29,14,01,21.70
2016,06,29,14,02,21.80
2016,06,29,14,03,21.70
2016,06,29,14,04,21.60
2016,06,29,14,05,21.50
2016,06,29,14,06,21.40
2016,06,29,14,07,21.30
2016,06,29,14,08,21.30
2016,06,29,14,09,21.40
2016,06,29,14,10,21.50
2016,06,29,14,11,21.50
2016,06,29,14,12,21.40
2016,06,29,14,13,21.30
2016,06,29,14,14,21.30
2016,06,29,14,15,21.30
2016,06,29,14,16,21.40
2016,06,29,14,17,21.40
2016,06,29,14,18,21.50
2016,06,29,14,19,21.50
2016,06,29,14,20,21.50
2016,06,29,14,21,21.50
2016,06,29,14,22,21.40
2016,06,29,14,23,21.40
2016,06,29,14,24,21.40
2016,06,29,14,25,21.40
2016,06,29,14,26,21.30
2016,06,29,14,27,21.40
2016,06,29,14,28,21.50
2016,06,29,14,29,21.50
2016,06,29,14,30,21.50
2016,06,29,14,31,21.40
2016,06,29,14,32,21.40
2016,06,29,14,33,21.50
2016,06,29,14,34,21.60
2016,06,29,14,35,21.60
2016,06,29,14,36,21.70
2016,06,29,14,37,21.80
2016,06,29,14,38,21.90
2016,06,29,14,39,22.00
2016,06,29,14,40,22.10
2016,06,29,14,41,22.00
2016,06,29,14,42,22.00
2016,06,29,14,43,21.90
2016,06,29,14,44,21.80
2016,06,29,14,45,21.80
2016,06,29,14,46,21.70
2016,06,29,14,47,21.70
2016,06,29,14,48,21.70
2016,06,29,14,49,21.70
2016,06,29,14,50,21.70
2016,06,29,14,51,21.70
2016,06,29,14,52,21.60
2016,06,29,14,53,21.50
2016,06,29,14,54,21.40
2016,06,29,14,55,21.30
2016,06,29,14,56,21.30
2016,06,29,14,57,21.30
2016,06,29,14,58,21.30
2016,06,29,14,59,21.40
2016,06,29,15,00,21.40
2016,06,29,15,01,21.50
2016,06,29,15,02,21.60
2016,06,29,15,03,21.70
2016,06,29,15,04,21.90
2016,06,29,15,05,22.10
2016,06,29,15,06,22.10
2016,06,29,15,07,22.10
2016,06,29,15,08,22.10
2016,06,29,15,09,22.10
2016,06,29,15,10,22.10
2016,06,29,15,11,22.20
2016,06,29,15,12,22.20
2016,06,29,15,13,22.20
2016,06,29,15,14,22.40
2016,06,29,15,15,22.60
2016,06,29,15,16,22.70
2016,06,29,15,17,22.70
2016,06,29,15,18,22.80
2016,06,29,15,19,22.80
2016,06,29,15,20,22.80
2016,06,29,15,21,22.70
2016,06,29,15,22,22.60
2016,06,29,15,23,22.60
2016,06,29,15,24,22.50
2016,06,29,15,25,22.40
2016,06,29,15,26,22.40
2016,06,29,15,27,22.30
2016,06,29,15,28,22.30
2016,06,29,15,29,22.30
2016,06,29,15,30,22.40
2016,06,29,15,31,22.40
2016,06,29,15,32,22.50
2016,06,29,15,33,22.60
2016,06,29,15,34,22.60
2016,06,29,15,35,22.70
2016,06,29,15,36,22.70
2016,06,29,15,37,22.70
2016,06,29,15,38,22.80
2016,06,29,15,39,22.80
2016,06,29,15,40,22.90
2016,06,29,15,41,22.90
2016,06,29,15,42,22.90
2016,06,29,15,43,23.00
2016,06,29,15,44,23.00
2016,06,29,15,45,22.90
2016,06,29,15,46,22.90
2016,06,29,15,47,22.80
2016,06,29,15,48,22.70
2016,06,29,15,49,22.60
2016,06,29,15,50,22.60
2016,06,29,15,51,22.70
2016,06,29,15,52,22.60
2016,06,29,15,53,22.60
2016,06,29,15,54,22.60
2016,06,29,15,55,22.70
2016,06,29,15,56,22.60
2016,06,29,15,57,22.50
2016,06,29,15,58,22.40
2016,06,29,15,59,22.30
2016,06,29,16,00,22.40
2016,06,29,16,01,22.30
2016,06,29,16,02,22.30
2016,06,29,16,03,22.20
2016,06,29,16,04,22.20
2016,06,29,16,05,22.20
2016,06,29,16,06,22.20
2016,06,29,16,07,22.20
2016,06,29,16,08,22.30
2016,06,29,16,09,22.30
2016,06,29,16,10,22.30
2016,06,29,16,11,22.40
2016,06,29,16,12,22.50
2016,06,29,16,13,22.70
2016,06,29,16,14,22.80
2016,06,29,16,15,22.90
2016,06,29,16,16,22.90
2016,06,29,16,17,22.90
2016,06,29,16,18,22.90
2016,06,29,16,19,23.00
2016,06,29,16,20,23.10
2016,06,29,16,21,23.10
2016,06,29,16,22,23.10
2016,06,29,16,23,23.10
2016,06,29,16,24,23.10
2016,06,29,16,25,23.10
2016,06,29,16,26,23.10
2016,06,29,16,27,23.10
2016,06,29,16,28,23.10
2016,06,29,16,29,23.00
2016,06,29,16,30,22.90
2016,06,29,16,31,22.90
2016,06,29,16,32,22.90
2016,06,29,16,33,22.90
2016,06,29,16,34,22.80
2016,06,29,16,35,22.80
2016,06,29,16,36,22.80
2016,06,29,16,37,22.70
2016,06,29,16,38,22.70
2016,06,29,16,39,22.70
2016,06,29,16,40,22.70
2016,06,29,16,41,22.70
2016,06,29,16,42,22.70
2016,06,29,16,43,22.70
2016,06,29,16,44,22.70
2016,06,29,16,45,22.60
2016,06,29,16,46,22.60
2016,06,29,16,47,22.50
2016,06,29,16,48,22.50
2016,06,29,16,49,22.50
2016,06,29,16,50,22.50
2016,06,29,16,51,22.50
2016,06,29,16,52,22.60
2016,06,29,16,53,22.60
2016,06,29,16,54,22.70
2016,06,29,16,55,22.70
2016,06,29,16,56,22.70
2016,06,29,16,57,22.70
2016,06,29,16,58,22.70
2016,06,29,16,59,22.80
2016,06,29,17,00,22.70
2016,06,29,17,01,22.70
2016,06,29,17,02,22.70
2016,06,29,17,03,22.60
2016,06,29,17,04,22.50
2016,06,29,17,05,22.40
2016,06,29,17,06,22.40
2016,06,29,17,07,22.40
2016,06,29,17,08,22.30
2016,06,29,17,09,22.30
2016,06,29,17,10,22.20
2016,06,29,17,11,22.20
2016,06,29,17,12,22.20
2016,06,29,17,13,22.10
2016,06,29,17,14,22.00
2016,06,29,17,15,22.00
2016,06,29,17,16,22.00
2016,06,29,17,17,22.10
2016,06,29,17,18,22.10
2016,06,29,17,19,22.00